Regional Weather Roundup
Issued by NWS

Home | Current Version | Previous Version | Text Only | Print | Product List | Glossary Off
Versions: 1 2 3 4 5 6 7 8 9 10 11 12 13 14 15 16 17 18 19 20 21 22 23 24 25 26 27 28 29 30 31 32 33 34 35 36 37 38 39 40 41 42 43 44 45 46 47 48 49 50

000
ASUS43 KBIS 251810
RWRND

NORTH DAKOTA REGIONAL WEATHER ROUNDUP
NATIONAL WEATHER SERVICE BISMARCK ND
100 PM CDT TUE JUL 25 2017

NOTE: "FAIR" INDICATES FEW OR NO CLOUDS BELOW 12,000 FEET WITH NO
SIGNIFICANT WEATHER AND/OR OBSTRUCTIONS TO VISIBILITY.


NDZ001>003-009>011-017-251900-
NORTHWEST NORTH DAKOTA

CITY           SKY/WX    TMP DP  RH WIND       PRES   REMARKS
WILLISTON      SUNNY     81  45  28 NW15G24   30.01F
6HR MIN TEMP:  63; 6HR MAX TEMP:  81;

MINOT          SUNNY     79  50  36 W12G22    29.95F
MINOT AFB      SUNNY     77  50  38 NW18      29.93F
$$

NDZ018>021-031>035-040>046-251900-
SOUTHWEST NORTH DAKOTA

CITY           SKY/WX    TMP DP  RH WIND       PRES   REMARKS
BISMARCK       CLOUDY    81  55  40 N6        29.95R
6HR MIN TEMP:  67; 6HR MAX TEMP:  81;

DICKINSON      MOSUNNY   82  45  27 N10       30.01R
GARRISON         N/A     80  48  32 NW15G26   29.96F
6HR MIN TEMP:  62; 6HR MAX TEMP:  80;

HETTINGER ARPT SUNNY     81  47  30 NE15G22   30.04S
$$

NDZ004>008-012>016-024-026-027-054-251900-
NORTHEAST NORTH DAKOTA

CITY           SKY/WX    TMP DP  RH WIND       PRES   REMARKS
GRAND FORKS    PTSUNNY   81  71  71 W6        29.86F
GRND FRKS AFB  MOSUNNY   83  68  59 SW8       29.87F
DEVILS LAKE    MOSUNNY   75  53  46 W14       29.93S
$$

NDZ022-023-025-028>030-036>039-047>053-251900-
SOUTHEAST NORTH DAKOTA

CITY           SKY/WX    TMP DP  RH WIND       PRES   REMARKS
FARGO          NOT AVBL
JAMESTOWN      CLOUDY    80  63  55 N12       29.91R
$$




USA.gov is the U.S. government's official web portal to all federal, state and local government web resources and services.